Weather Roundup
Issued by NWS Springfield, MO

Home | Current Version | Previous Version | Text Only | Print | Product List | Glossary On
Versions: 1 2 3 4 5 6 7 8 9 10 11 12 13 14 15 16 17 18 19 20 21 22 23 24 25 26 27 28 29 30 31 32 33 34 35 36 37 38 39 40 41 42 43 44 45 46 47 48 49 50
463
NZUS99 KSGF 260307
HRRSGF

HOURLY WEATHER
NATIONAL WEATHER SERVICE SPRINGFIELD MO
1000 PM CDT WED APR 25 2018

......SGF CWA......

CITY           SKY/WX    TMP DP  RH WIND       PRES   REMARKS
SPRINGFIELD    LGT RAIN  51  48  89 NE9       29.99S
JOPLIN         LGT RAIN  52  51  97 NE5       30.00S FOG
WEST PLAINS    CLOUDY    52  50  93 N5        29.98F
ROLLA          LGT RAIN  50  48  93 N8        30.00S FOG
OSAGE BEACH    LGT RAIN  49  49 100 CALM      30.03R FOG
BRANSON        LGT RAIN  50  50 100 CALM      29.99S

......SURROUNDING SGF CWA......

CITY           SKY/WX    TMP DP  RH WIND       PRES   REMARKS
CHANUTE        LGT RAIN  49  48  97 N10       30.05R
PARSONS        CLOUDY    50  49  96 N13       30.05R FOG
COFFEYVILLE    LGT RAIN  50  49  96 NW14      30.04S FOG
EMPORIA        CLOUDY    47  45  93 N6        30.07S
GROVE OK       CLOUDY    52  50  93 W5        30.02S
ROGERS AR      LGT RAIN  50  49  96 NW7       30.00S
SILOAM SPRINGS LGT RAIN  49  48  97 W12       30.01S
HARRISON AR    CLOUDY    50  50 100 CALM      29.98S FOG
NEAR YELLVILLE LGT RAIN  53  52  96 NW3       29.99S

......KANSAS AND MISSOURI......

CITY           SKY/WX    TMP DP  RH WIND       PRES   REMARKS
KANSAS CTY INT CLOUDY    49  45  86 NW3       30.05F
DOWNTOWN KC    CLOUDY    51  46  83 CALM      30.05S
COLUMBIA       LGT RAIN  51  48  89 NW6       30.01S
SEDALIA        CLOUDY    50  50 100 NW3       30.04S
ST JOSEPH      PTCLDY    47  40  76 NW3       30.06R
ST LOUIS       LGT RAIN  60  47  61 NW7       29.97S
SPIRIT OF STL  LGT RAIN  56  52  86 W8        29.98R
KIRKSVILLE     PTCLDY    45  45 100 W6        30.02S
WICHITA        MOCLDY    48  43  82 N12       30.08F
TOPEKA         MOCLDY    49  48  97 CALM      30.06S
OLATHE         CLOUDY    49  48  97 N6        30.05S

......TENNESSEE......

CITY           SKY/WX    TMP DP  RH WIND       PRES   REMARKS
MEMPHIS        LGT RAIN  58  52  80 NE10      29.94F
NASHVILLE      CLOUDY    63  52  67 CALM      29.94S

......ARKANSAS.......

CITY           SKY/WX    TMP DP  RH WIND       PRES   REMARKS
FAYETTEVILLE   LGT RAIN  50  49  96 W9        29.99F FOG
FT SMITH       CLOUDY    53  51  93 W9        30.01S
LITTLE ROCK    LGT RAIN  54  54 100 N5        29.96F FOG

......OKLAHOMA.......

CITY           SKY/WX    TMP DP  RH WIND       PRES   REMARKS
TULSA          CLOUDY    50  46  86 NW10      30.05S
PONCA CITY     CLOUDY    49  42  77 N9        30.09S
MCALESTER      CLOUDY    51  46  83 NW9       30.07S
OKLAHOMA CITY  CLOUDY    51  42  71 N10       30.11S

......IOWA............

CITY           SKY/WX    TMP DP  RH WIND       PRES   REMARKS
DES MOINES     CLEAR     57  28  33 NE5       30.01S
QUAD CITIES    FAIR      49  33  54 CALM      29.99R

......ILLINOIS........

CITY           SKY/WX    TMP DP  RH WIND       PRES   REMARKS
QUINCY         PTCLDY    53  38  56 N5        29.99F
CHICAGO        FAIR      41  28  60 NE3       30.03F





USA.gov is the U.S. government's official web portal to all federal, state and local government web resources and services.